Helicity
72 52 51 57 49 42 35 30 52 63 67 66 61 61 60 57 69 75 103 111 122 133
74 78 67 64 46 48 63 82 88 72 72 67 64 58 50 55 63 73 82 95 101 117
88 85 80 81 89 84 77 94 79 75 68 67 58 61 50 60 60 65 82 72 79 88
117 118 91 77 98 106 116 105 79 62 57 45 39 45 46 61 50 77 72 69 76 83
113 93 95 100 109 110 94 62 58 50 47 45 44 35 42 35 39 58 50 45 71 55
101 100 112 107 104 116 87 87 77 64 46 34 30 44 36 43 60 62 66 80 64 47
102 97 102 118 123 100 92 73 61 56 53 56 63 60 75 108 121 124 121 116 84 58
110 103 98 126 102 82 73 71 67 67 63 57 64 74 118 127 133 134 142 112 85 63
116 126 135 97 80 75 82 80 70 68 69 85 99 101 121 137 145 144 132 109 86 80
159 116 77 81 92 96 80 68 74 89 105 112 120 83 98 102 132 130 119 110 109 101
108 92 99 94 81 76 75 96 114 111 114 125 118 65 79 89 117 113 108 113 113 108
104 96 88 88 92 104 116 117 122 116 117 114 110 59 69 92 117 123 120 115 115 90
97 97 106 106 110 127 125 127 131 135 110 85 113 60 67 98 132 123 118 125 105 54
111 111 102 125 135 128 133 130 135 138 134 114 91 88 59 63 94 103 123 128 123 147
Wind_Speed
59 62 65 69 73 77 80 82 84 86 87 89 90 92 92 93 94 93 94 94 94 95
63 67 70 72 75 78 81 84 87 89 90 91 93 94 93 95 97 95 92 94 94 95
65 68 72 76 82 84 85 87 89 90 91 93 93 95 94 98 98 95 96 98 97 95
70 74 76 79 81 83 84 87 88 90 92 95 97 98 98 101 98 100 102 98 97 94
74 78 81 82 83 84 85 85 90 92 94 96 98 99 102 101 99 103 103 99 95 96
79 81 83 84 85 85 87 90 92 94 97 99 100 102 100 99 103 100 100 94 99 102
80 80 83 85 86 87 89 92 94 96 97 100 101 101 99 102 102 101 97 98 102 104
78 80 83 86 87 88 89 92 95 98 99 99 99 97 103 103 104 105 105 106 107 106
80 83 86 86 88 90 93 95 97 99 100 102 99 103 104 105 105 105 109 112 112 110
82 83 83 86 90 94 96 97 100 100 100 103 100 102 106 108 105 107 107 107 108 109
79 81 85 89 91 94 95 98 100 101 99 101 101 105 108 108 104 101 98 97 98 98
79 84 87 90 93 94 97 99 99 97 100 101 102 104 103 104 100 96 95 91 89 89
79 83 88 89 93 91 94 96 97 100 98 98 100 96 99 100 94 93 91 88 84 92
79 83 82 87 88 93 95 96 98 102 101 96 91 92 96 95 92 89 89 88 91 83
Wind_Direction
357 354 351 348 345 343 341 339 340 340 339 336 335 333 331 330 328 326 324 323 322 320
353 350 348 347 346 344 342 340 339 338 337 336 335 333 332 331 329 328 327 325 324 322
351 350 349 346 344 343 342 340 339 338 338 337 337 336 335 333 331 329 328 327 325 323
348 347 347 346 345 345 343 342 341 340 339 338 337 336 334 333 332 330 328 327 326 324
345 344 344 344 345 344 343 342 341 340 339 338 336 335 334 332 332 329 328 327 327 325
343 344 344 344 344 343 342 341 340 339 338 337 336 335 334 332 331 330 329 328 326 323
343 343 343 343 343 342 341 340 339 339 338 337 336 335 334 333 331 330 328 326 324 323
342 342 342 342 342 341 341 340 339 338 338 337 337 337 335 333 330 328 326 325 323 322
341 341 341 341 341 341 340 339 339 338 338 337 337 336 334 332 330 328 326 324 323 322
341 341 341 342 341 340 339 339 339 339 339 337 337 336 334 332 331 329 328 326 325 324
341 342 341 340 340 340 340 340 339 338 338 337 336 336 335 334 333 331 331 330 330 330
342 341 340 340 340 341 340 339 339 339 338 337 337 337 337 336 335 334 334 334 335 335
341 341 340 340 340 340 340 339 339 338 338 338 338 339 339 339 338 337 338 338 339 336
343 342 341 340 340 340 339 339 338 338 339 339 340 340 340 341 340 340 340 340 339 340